Regional Weather Roundup
Issued by NWS

Home | Current Version | Previous Version | Graphics & Text | Print | Product List | Glossary On
Versions: 1 2 3 4 5 6 7 8 9 10 11 12 13 14 15 16 17 18 19 20 21 22 23 24 25 26 27 28 29 30 31 32 33 34 35 36 37 38 39 40 41 42 43 44 45 46 47 48 49 50
777
ASUS43 KMPX 300901
RWRMN
WEATHER ROUNDUP FOR MINNESOTA
NATIONAL WEATHER SERVICE TWIN CITIES/CHANHASSEN MN
400 AM CDT FRI SEP 30 2016


NOTE: "FAIR" INDICATES FEW OR NO CLOUDS BELOW 12,000 FEET WITH NO
SIGNIFICANT WEATHER AND/OR OBSTRUCTIONS TO VISIBILITY. N/A MEANS
CURRENT SKY AND/OR WEATHER CONDITIONS ARE NOT AVAILABLE.

MNZ060>063-068>070-301000-
   Twin Cities Metro

CITY           SKY/WX    TMP DP  RH WIND       PRES   REMARKS
TWIN CITIES    CLEAR     51  48  89 N3        30.38S
ST PAUL        CLEAR     51  49  92 CALM      30.39S
CRYSTAL        CLEAR     48  45  89 CALM      30.38S FOG
BLAINE         FOG       48  48 100 CALM      30.38F VSB 1
LAKEVILLE      MOCLDY    46  46 100 CALM      30.37S FOG
EDEN PRAIRIE   CLEAR     52  49  89 NE6       30.36F
LAKEVILLE      MOCLDY    46  46 100 CALM      30.37S FOG
SOUTH ST PAUL  CLEAR     51  50  97 CALM      30.38S
LAKE ELMO      FAIR      50  48  93 CALM      30.39S
$$
MNZ001>005-007-008-013>017-022>024-027-028-301000-
   Northwest Minnesota

CITY           SKY/WX    TMP DP  RH WIND       PRES   REMARKS
BEMIDJI        PTCLDY    45  44  97 CALM      30.40F
HALLOCK        CLEAR     46  45  93 SE7       30.36S
ROSEAU         CLEAR     46  43  87 SE3       30.39  HAZE
WARROAD        CLEAR     48  45  87 SE7       30.40F
THIEF RVR FALL CLEAR     45  43  93 SE7       30.39S
CROOKSTON      CLEAR     46  45  93 SE8       30.37F
FOSSTON        CLEAR     45  43  93 SE6       30.39S
DETROIT LAKES  CLEAR     46  46 100 SE7       30.39F
MOORHEAD       CLEAR     48  46  93 SE7       30.36F
PARK RAPIDS    CLEAR     46  43  89 E3        30.40S
MAHNOMEN       FAIR      47  45  94 SE5       30.38S
$$
MNZ006-009>011-018-025>026-301000-
   North Central Minnesota

CITY           SKY/WX    TMP DP  RH WIND       PRES   REMARKS
BAUDETTE       CLOUDY    52  47  83 SE8       30.42F
FLAG ISLAND    CLOUDY    55  48  76 SE12      30.40S
INTL FALLS     CLOUDY    50  47  89 E5        30.44S
WASKISH        CLOUDY    52  48  87 CALM      30.42F
BIG FORK       CLOUDY    45  45 100 CALM      30.43F FOG
GRAND RAPIDS   FOG       48  48 100 SE5       30.45S VSB 1/2
ORR            CLOUDY    45  43  93 CALM      30.42F FOG
COOK           FOG       45  45 100 CALM      30.45S VSB 3/4
WALKER         FAIR      46  44  95 CALM      30.41S
$$
MNZ012-019>021-037-301000-
   Northeast Minnesota

CITY           SKY/WX    TMP DP  RH WIND       PRES   REMARKS
DULUTH         FOG       51  51 100 E9        30.44S VSB 3/4
ELY            CLOUDY    45  43  93 CALM      30.45S FOG
HIBBING        CLOUDY    48  48 100 SE6       30.43F FOG
EVELETH        CLOUDY    50  49  97 CALM      30.45S
DULUTH HARBOR  CLOUDY    55  52  88 NE12      30.45S
TWO HARBORS    CLOUDY    54  48  82 E8        30.44S
SILVER BAY     CLOUDY    54  52  94 CALM      30.44F
GRAND MARAIS     N/A     50  49  96 NE3       30.46S
G MARAIS ARPRT CLEAR     43  39  87 CALM      30.47S
$$
MNZ029>031-032-039>041-046>048-054>057-064-301000-
   West Central Minnesota

CITY           SKY/WX    TMP DP  RH WIND       PRES   REMARKS
FERGUS FALLS   CLEAR     50  48  93 SE6       30.39F
MORRIS         CLEAR     46  45  93 E8        30.36S
ALEXANDRIA     CLEAR     47  47 100 E7        30.39F
ELBOW LAKE     FAIR      48  48  97 SE7       30.37F
WADENA         FOG       43  41  93 CALM      30.39F VSB 1/4
GLENWOOD       FOG       45  43  93 E5        30.39S VSB 3/4
BENSON         CLEAR     46  45  93 SE5       30.37F
ORTONVILLE     CLEAR     45  43  93 CALM      30.36F FOG
MADISON        FOG       45  45 100 CALM      30.36F VSB 3/4
WILLMAR        FAIR      46  46 100 NE3       30.39S
$$
MNZ033>034-036-042>043-049>051-058-059-301000-
   Central Minnesota

CITY           SKY/WX    TMP DP  RH WIND       PRES   REMARKS
ST CLOUD       FOG       48  48 100 E5        30.39S VSB 1/2
SAUK CENTRE    FAIR      46  46  99 E3        30.39F
PAYNESVILLE    CLOUDY    47  47 100 NE6       30.39F FOG
AITKIN         CLOUDY    54  48  82 E3        30.41S
PINE RIVER     FOG       46  46 100 SE5       30.43F VSB 3/4
BRAINERD       CLOUDY    50  50 100 E3        30.41S FOG
STAPLES        FOG       39  39 100 CALM      30.40S VSB 1/4
LONG PRAIRIE   FAIR      43  43 100 CALM      30.40F FOG
LITTLE FALLS   CLOUDY    46  45  93 CALM      30.40F FOG
LITCHFIELD     CLOUDY    46  46 100 CALM      30.39S FOG
BUFFALO        MOCLDY    49  47  93 NE5       30.39S
MAPLE LAKE     FOG       49  49  99 CALM      30.39F VSB 1/4
HUTCHINSON     FOG       48  48  99 CALM      30.38S VSB 1
$$
MNZ037-044-045-052-053-301000-
   East Central Minnesota

CITY           SKY/WX    TMP DP  RH WIND       PRES   REMARKS
PRINCETON      FOG       50  48  93 NE5       30.40S VSB 1/2
MORA           FOG       50  50 100 CALM      30.43S VSB 1
CAMBRIDGE      FOG       54  50  87 NE3       30.39S VSB 1/2
MOOSE LAKE     CLOUDY    50  46  87 NE3       30.41F FOG
HINCKLEY       CLOUDY    52  52 100 E6        30.42F FOG
CLOQUET        FOG       52  48  87 E3        30.43F VSB 1
MCGREGOR       CLOUDY    52  50  93 E7        30.43S
$$
MNZ071>073-080-081-089-090-097-098-301000-
   Southwest Minnesota

CITY           SKY/WX    TMP DP  RH WIND       PRES   REMARKS
MONTEVIDEO     CLEAR     45  45 100 CALM      30.38F
GRANITE FALLS  CLEAR     42  41  95 CALM      30.38S
CANBY          CLEAR     41  41  97 CALM      30.37F
MARSHALL       CLEAR     42  40  92 CALM      30.37S
REDWOOD FALLS  CLEAR     46  44  93 N3        30.37S
OLIVIA         CLEAR     43  41  93 NE3       30.36S
PIPESTONE      CLEAR     48  45  87 E5        30.35F
WINDOM         CLEAR     45  43  93 CALM      30.36S
WORTHINGTON    CLEAR     43  41  93 NW3       30.36S
JACKSON        CLEAR     43  41  93 CALM      30.36S FOG
TRACY          CLEAR     48  47  97 CALM      30.37S
$$
MNZ065>067-074>077-082>085-091>093-301000-
   South Central Minnesota

CITY           SKY/WX    TMP DP  RH WIND       PRES   REMARKS
MANKATO        CLEAR     53  51  93 E6        30.36S
ST JAMES       FOG       43  43 100 CALM      30.36F VSB 1/2
FAIRMONT       CLEAR     45  44  97 N3        30.35F
GLENCOE        CLEAR     46  47 100 CALM      30.37R
FARIBAULT        N/A     45  45 100 CALM      30.37S FOG
OWATONNA       CLEAR     52  48  87 E3        30.36S
WASECA         CLEAR     52  50  93 NE5       30.37S
ALBERT LEA     CLEAR     50  48  93 CALM      30.35S
$$
MNZ078>079-086>088-094>096-301000-
   Southeast Minnesota

CITY           SKY/WX    TMP DP  RH WIND       PRES   REMARKS
ROCHESTER      CLEAR     51  50  96 N7        30.35F
RED WING       CLEAR     52  50  93 NE3       30.36F
STANTON        FOG       43  42  95 CALM      30.36S VSB 1/2
DODGE CENTER   CLEAR     48  46  93 NE5       30.36S FOG
WINONA         CLEAR     52  50  93 CALM      30.35S
AUSTIN         CLEAR     48  46  93 N3        30.34F
PRESTON        CLEAR     51  48  89 N5        30.34F
$$
ABBREVIATIONS USED IN REMARKS
   TC - TEMPERATURES IN CELSIUS
  WCI - WIND CHILL INDEX
   HX - HEAT INDEX
  VSB - VISIBILITY
$$




USA.gov is the U.S. government's official web portal to all federal, state and local government web resources and services.